DLH454 EDDF-KSFO

Flight info

Callsign DLH454
Flight time N/A
Altitude 34000
Route OBOKA3M/25C OBOKA Z28 DIBIR DCT BUDIP DCT MIMVA L602 EMLON M79 TENDO DCT ASLIB DCT TRN DCT AMCON DCT AMLAD DCT SUNOT/M081F360 NATA HOIST/N0472F360 DCT YWK/N0475F380 DCT YMO DCT YQT DCT ABR/N0473F400 DCT CZI DCT MLD J32 BAM DCT SWR/N0344F160 T331 TIPRE RISTI1
Aircraft A343/H-SDE2E3FGHIJ4J5M1RWXY/LB1D1

Departure

Time 2026-05-05 14:19
Airport Frankfurt Main Airport (EDDF)

Arrival

Time N/A
Airport San Francisco International Airport (KSFO)
Time Latitude Longitude Altitude Speed Heading
2026-05-05 13:58 50.04961 8.58295 363 ft 0 kts 339°
2026-05-05 14:09 50.04945 8.58304 364 ft 4 kts 339°
2026-05-05 14:09 50.04920 8.58319 369 ft 4 kts 340°
2026-05-05 14:09 50.04896 8.58333 367 ft 4 kts 351°
2026-05-05 14:10 50.04874 8.58328 364 ft 4 kts 45°
2026-05-05 14:10 50.04859 8.58294 371 ft 4 kts 69°
2026-05-05 14:10 50.04851 8.58256 365 ft 2 kts 69°
2026-05-05 14:10 50.04850 8.58253 365 ft 0 kts 69°
2026-05-05 14:13 50.04851 8.58257 365 ft 3 kts 69°
2026-05-05 14:13 50.04882 8.58382 369 ft 19 kts 70°
2026-05-05 14:13 50.04924 8.58555 366 ft 14 kts 69°
2026-05-05 14:13 50.04919 8.58667 367 ft 5 kts 136°
2026-05-05 14:14 50.04899 8.58678 370 ft 4 kts 159°
2026-05-05 14:14 50.04838 8.58713 372 ft 10 kts 160°
2026-05-05 14:14 50.04788 8.58742 371 ft 6 kts 159°
2026-05-05 14:14 50.04764 8.58757 374 ft 2 kts 158°
2026-05-05 14:15 50.04759 8.58760 374 ft 1 kts 158°
2026-05-05 14:15 50.04746 8.58766 373 ft 4 kts 161°
2026-05-05 14:15 50.04704 8.58768 373 ft 5 kts 184°
2026-05-05 14:15 50.04684 8.58765 374 ft 4 kts 185°
2026-05-05 14:16 50.04644 8.58760 374 ft 6 kts 185°
2026-05-05 14:16 50.04613 8.58743 374 ft 3 kts 205°
2026-05-05 14:16 50.04586 8.58717 376 ft 8 kts 211°
2026-05-05 14:16 50.04541 8.58685 375 ft 8 kts 197°
2026-05-05 14:17 50.04505 8.58641 374 ft 5 kts 240°
2026-05-05 14:17 50.04491 8.58596 376 ft 4 kts 245°
2026-05-05 14:17 50.04483 8.58567 378 ft 0 kts 248°
2026-05-05 14:18 50.04452 8.58449 377 ft 33 kts 249°
2026-05-05 14:18 50.04314 8.57870 368 ft 80 kts 250°
2026-05-05 14:19 50.04074 8.56865 369 ft 118 kts 250°
2026-05-05 14:19 50.03748 8.55503 355 ft 150 kts 250°
2026-05-05 14:19 50.03383 8.53877 622 ft 154 kts 249°
2026-05-05 14:19 50.02931 8.52561 1176 ft 135 kts 224°